Date,TemperatureHighF,TemperatureAvgF,TemperatureLowF,DewpointHighF,DewpointAvgF,DewpointLowF,HumidityHigh,HumidityAvg,HumidityLow,PressureMaxIn,PressureMinIn,WindSpeedMaxMPH,WindSpeedAvgMPH,GustSpeedMaxMPH,PrecipitationSumIn
2013-5-1,64.1,59.4,53.1,32.9,30.8,27.0,43,34,27,28.45,28.39,21,4,21,4.80
2013-5-2,65.1,54.9,43.2,37.4,32.6,25.8,75,45,25,28.46,28.30,27,6,27,4.80
2013-5-3,60.7,54.6,44.9,43.0,38.7,28.1,72,55,37,28.40,28.32,29,7,29,4.80
2013-5-4,59.9,50.4,41.3,40.7,37.5,33.0,83,62,46,28.34,28.22,30,8,30,4.80
2013-5-5,60.8,51.0,41.8,38.8,32.6,24.3,74,52,26,28.26,28.16,31,8,31,4.80
2013-5-6,55.2,48.4,41.4,51.5,43.9,34.9,100,85,63,28.22,28.13,25,6,25,4.86
2013-5-7,56.9,53.5,51.9,54.4,52.1,49.7,100,95,81,28.14,28.05,30,8,30,5.34
2013-5-8,65.4,55.2,46.9,53.3,47.8,43.4,100,78,46,28.11,28.00,23,2,23,5.79
2013-5-9,65.3,56.4,47.1,55.8,51.0,46.6,100,83,60,28.14,28.02,19,2,19,5.85
2013-5-10,70.7,56.1,45.3,58.2,50.5,44.5,99,83,48,28.15,27.96,28,2,28,6.30
2013-5-11,56.1,54.0,48.1,55.1,51.2,42.3,99,90,79,27.97,27.90,19,4,19,6.60
2013-5-12,48.1,42.6,37.0,42.8,30.6,23.9,90,64,44,28.10,27.90,33,7,33,6.62
2013-5-13,45.9,39.2,30.4,27.1,23.2,19.6,75,54,37,28.23,28.08,26,6,26,6.62
2013-5-14,56.3,43.0,25.2,34.8,29.2,22.8,95,62,34,28.26,28.06,18,2,18,6.62
2013-5-15,79.6,63.7,45.0,56.7,48.4,34.6,89,59,40,28.07,27.88,30,5,31,6.67
2013-5-16,67.5,60.5,49.3,57.0,53.4,46.1,100,79,52,28.12,27.93,20,4,20,6.95
2013-5-17,69.0,58.9,48.9,52.5,47.3,38.6,100,70,35,28.24,28.11,13,1,13,6.95
2013-5-18,64.6,54.3,42.9,54.4,49.2,41.4,100,84,68,28.28,28.21,23,4,23,6.95
2013-5-19,59.3,56.3,50.1,56.6,54.6,50.0,100,94,87,28.26,28.17,15,4,18,6.98
2013-5-20,76.0,64.3,52.0,59.3,56.2,51.4,100,77,47,28.20,28.09,15,1,15,6.98
2013-5-21,75.5,64.8,52.0,61.2,56.6,48.9,100,77,51,28.14,28.00,21,2,21,6.98
2013-5-22,76.1,63.5,54.2,59.2,54.0,47.6,96,73,48,28.07,27.95,23,3,23,6.99
2013-5-23,71.3,59.6,53.2,59.5,55.1,51.6,100,86,52,28.02,27.91,27,3,27,7.21
2013-5-24,53.3,39.3,34.2,52.0,34.9,24.9,99,85,66,28.31,27.94,24,5,24,7.29
2013-5-25,52.4,41.0,29.9,33.9,29.5,24.8,87,66,42,28.34,28.25,30,5,30,7.29
2013-5-26,57.9,44.9,30.7,35.0,31.2,23.2,90,62,37,28.34,28.28,20,3,20,7.29
2013-5-27,57.5,46.2,30.5,46.0,38.0,28.8,97,75,45,28.37,28.24,14,1,14,7.29
2013-5-28,72.0,57.4,48.7,61.1,51.5,43.9,100,82,56,28.26,28.16,26,1,26,7.44
2013-5-29,77.0,63.8,46.1,59.2,52.0,41.5,95,68,39,28.26,28.18,26,3,26,7.44
2013-5-30,77.7,63.9,49.6,57.4,52.6,39.1,100,70,39,28.35,28.25,15,1,15,7.44
2013-5-31,83.3,66.2,51.7,61.9,55.6,36.0,100,73,40,28.29,28.15,38,1,38,7.46